Vertical_Velocity
-3 -0 4 -5 -2 -3 -0 -1 1 0 3 1 -2 -2 -2 1 -2 -0 -15 5 -2 -1 -0 -0 -0 -1 -2 -2 6 9 -3 -0 -3 1 -0 5 -2 2 1 -3 -0 -1 -6 -7 -2
-3 -3 -2 2 -3 -3 -3 1 3 1 -3 2 3 -2 -3 -1 -1 -10 -5 -0 2 0 -0 -2 -4 -0 1 -5 -1 -3 -0 -3 -1 1 -0 1 -2 -0 -1 1 3 -2 3 0 0
-1 -1 -1 -0 -1 -1 -4 1 1 0 1 -1 2 5 0 -4 -6 -21 -0 3 -0 -0 -0 2 8 13 4 4 -4 0 -3 -1 -3 5 -0 -0 -1 1 -1 -0 -0 -8 -3 1 -0
-1 -1 -4 1 1 -2 -2 -4 2 1 2 1 10 2 3 -0 -7 5 3 -2 0 2 3 -0 1 6 1 0 -4 4 -2 2 -5 -2 -1 -0 2 0 0 -4 -1 -1 3 1 -3
-3 -1 -3 -4 3 1 -5 -5 1 -6 2 3 -0 11 5 4 -49 15 7 2 3 1 -5 -5 2 3 -1 -1 5 2 -3 4 2 3 -2 -1 -1 -2 -2 -4 12 -1 0 -1 3
4 2 -3 -4 0 -1 -2 -4 -1 -2 -2 1 2 21 7 4 -5 -11 4 10 -2 4 -1 1 -11 -6 0 -3 0 -1 -0 -6 4 -3 0 -1 -4 4 -6 -3 -5 13 -1 -2 -3
-4 -0 1 -8 -4 -3 -1 -5 0 -4 -0 -3 1 31 9 -52 2 3 8 16 6 -1 -3 -2 -7 16 5 0 2 -2 1 -1 -1 -1 -2 2 -2 -2 -9 2 -0 -0 8 5 -5
7 1 0 -0 1 -1 0 0 -3 -0 -2 -0 -1 30 -6 -31 -3 -5 4 -3 6 6 -1 6 4 3 13 2 -1 0 -3 -0 -6 1 -4 -3 -9 -5 -3 6 -6 -2 1 2 5
-1 1 4 -2 -1 -0 1 -2 -5 -6 -2 1 4 25 -7 -11 -4 -12 6 -13 7 9 -2 7 20 0 7 -1 -1 -1 -2 1 -5 -1 -1 -3 -4 -6 -0 4 -1 -1 -2 -2 3
-2 -3 3 3 -5 -4 -2 -3 -12 8 -2 6 4 22 -6 -17 2 -12 -5 8 -5 6 10 11 8 1 2 -1 -6 -3 1 -0 -2 -5 3 1 -3 -2 -3 2 -3 -3 -4 -3 -3
1 3 -1 1 -3 -3 -6 -23 -30 3 19 -9 10 -17 3 4 48 -1 9 11 8 18 0 1 -0 -4 -8 -3 -2 -1 1 -0 -3 -4 -4 -2 -0 -4 -6 4 0 -2 -1 -3 -2
-3 -3 -1 -3 -0 6 -0 -3 3 12 -13 -4 -10 -2 8 6 6 4 18 8 11 -2 3 5 -4 -6 -0 2 2 2 1 -4 -4 -0 -3 -0 -4 -3 0 -4 -4 0 -2 -1 3
-8 -4 -5 -4 -4 3 1 12 7 8 8 -19 -10 -7 -8 22 -9 -9 8 -5 -2 5 -0 -6 -15 2 3 2 8 -1 -0 -1 -4 0 -1 1 -3 -0 -6 1 3 -2 -5 -0 -5
-2 -1 -4 -0 -3 -3 2 11 2 -10 9 -10 -1 -28 -4 13 -3 -14 15 -21 5 -11 -2 -7 -7 -3 4 -0 2 5 -2 0 1 -1 -4 -6 -7 -3 -3 -5 0 -3 -1 -5 -4
1 -1 -5 9 -4 -4 2 7 5 -10 9 -12 -0 -5 -2 -0 -8 -19 -1 36 -5 -2 2 -24 2 3 6 -18 0 -16 0 -1 -0 -0 1 -2 1 -12 4 -3 -6 -2 -3 -3 -4
4 3 -1 -4 -4 -4 1 8 11 9 -11 -2 -0 -1 9 11 -0 5 2 22 -17 4 8 -10 -1 1 -15 -4 -2 -1 -0 -1 -1 -2 2 -3 0 -6 -2 -11 -2 -1 1 1 2
-1 -3 4 7 -24 4 9 2 7 4 -12 -8 -2 3 -1 1 10 6 2 10 -4 15 4 8 -5 -1 -2 5 5 4 -1 -1 -2 -1 -7 -1 8 -15 -3 -2 -3 -2 0 -1 -2
-0 -1 -10 -9 0 4 11 8 11 -7 -5 -8 2 -1 -2 -3 -3 -1 6 4 2 5 1 -2 19 1 -2 -9 -11 -4 -9 -7 -5 -2 -4 1 -4 -18 -8 -1 1 1 2 -0 -3
-0 -11 -19 -5 6 10 17 10 -8 -0 0 1 -11 4 -3 6 -6 8 -1 -6 -10 -5 -9 3 -1 6 0 -0 -15 -0 1 -15 -2 -1 -0 -4 -6 -10 0 1 2 1 1 -0 -2
-5 -1 -28 12 9 18 14 -9 -2 0 5 -4 3 7 1 -1 11 10 3 -12 -5 -4 0 -3 3 -5 1 -3 1 -16 -7 -1 0 -2 -1 -3 -1 -8 -0 -2 1 2 -0 -0 -1
-4 -1 -20 7 10 9 3 -3 -1 -8 16 1 -0 -0 1 2 4 -2 -10 -2 2 1 4 0 -4 -8 1 -1 -10 1 5 1 -8 -4 -5 -2 -9 -7 -6 -3 -2 -1 -0 -0 -2
0 3 -3 23 5 -1 0 -1 1 -6 4 0 6 4 4 -0 0 2 -7 -12 -4 -11 -3 -22 1 -0 -26 -1 -6 -8 -6 -6 -2 -2 -1 -5 -15 -1 -1 -1 -2 -1 -1 -2 1
0 -4 -10 11 -0 -0 -1 -3 2 4 -3 -0 0 2 -0 2 6 2 -0 -9 2 3 -15 -14 4 3 9 -4 4 1 -2 -2 -0 -2 -3 0 -12 -1 1 2 2 -3 -0 -1 -3
2 0 -4 10 1 2 -0 -1 -1 -2 -2 0 -2 9 5 1 -2 -6 -2 -5 1 -1 0 14 1 -6 -17 -47 -13 0 3 1 -1 5 -7 -11 -1 -3 0 -0 1 3 2 -3 -2
2 -4 -2 -4 -5 -0 1 1 -0 -0 -1 0 -4 5 2 3 -0 -3 -1 -6 -3 -5 2 4 -2 6 -3 -0 2 -5 -3 0 3 -14 -4 -20 -0 -7 -3 -3 -4 -4 4 3 0
-1 1 -1 -1 -2 3 -2 -2 2 -10 3 -5 6 -3 3 4 -4 -5 9 -1 4 -5 2 1 -4 4 -0 1 0 1 0 0 -0 -0 4 2 -2 -4 -4 4 2 -2 1 -1 -2
5 -5 10 -5 -0 0 -4 -5 -4 2 -7 -0 5 6 0 -7 6 2 4 1 1 7 -0 5 -0 8 -6 -0 4 9 -17 -3 -3 0 -6 2 -26 -1 -1 0 -2 -1 -1 -2 -5
Height
1521 1519 1518 1517 1516 1516 1515 1514 1514 1514 1514 1513 1513 1513 1511 1509 1507 1506 1503 1504 1504 1504 1506 1507 1508 1510 1510 1511 1511 1512 1519 1520 1509 1499 1496 1490 1493 1498 1501 1502 1504 1506 1507 1510 1516
1520 1517 1514 1512 1511 1511 1511 1510 1509 1509 1509 1510 1509 1509 1508 1506 1502 1498 1499 1498 1499 1501 1503 1505 1506 1508 1510 1510 1510 1510 1519 1508 1497 1495 1493 1493 1494 1496 1500 1502 1506 1505 1507 1509 1514
1516 1514 1512 1508 1506 1506 1506 1506 1504 1503 1504 1504 1505 1505 1505 1504 1501 1491 1492 1493 1493 1497 1500 1503 1505 1507 1508 1508 1507 1506 1511 1500 1499 1496 1495 1494 1496 1498 1498 1502 1502 1502 1505 1508 1511
1514 1511 1508 1506 1502 1500 1500 1501 1499 1498 1497 1499 1500 1501 1501 1503 1505 1489 1491 1492 1492 1494 1497 1500 1502 1503 1505 1506 1504 1507 1499 1499 1498 1499 1496 1497 1496 1498 1499 1500 1501 1503 1503 1505 1508
1512 1508 1504 1502 1498 1495 1494 1494 1494 1493 1492 1492 1495 1495 1496 1495 1487 1490 1489 1490 1492 1492 1494 1496 1498 1499 1500 1499 1500 1501 1498 1496 1497 1496 1495 1496 1497 1498 1497 1498 1500 1500 1502 1504 1505
1509 1505 1502 1498 1495 1491 1489 1488 1488 1486 1487 1487 1489 1490 1489 1485 1482 1485 1486 1487 1489 1489 1490 1492 1493 1495 1496 1495 1497 1493 1493 1492 1492 1495 1492 1494 1496 1497 1495 1497 1497 1499 1498 1499 1501
1506 1502 1498 1495 1492 1488 1485 1483 1481 1480 1480 1481 1483 1483 1478 1471 1477 1479 1481 1483 1484 1485 1486 1487 1490 1493 1493 1493 1491 1490 1493 1490 1489 1491 1491 1492 1496 1492 1492 1493 1493 1493 1494 1494 1495
1502 1499 1495 1491 1488 1484 1481 1477 1476 1473 1474 1476 1478 1478 1463 1466 1471 1473 1477 1477 1478 1480 1482 1485 1488 1490 1490 1489 1487 1489 1491 1499 1488 1487 1489 1491 1500 1488 1486 1486 1485 1487 1488 1489 1490
1499 1495 1491 1487 1483 1479 1475 1471 1469 1467 1467 1470 1470 1468 1459 1460 1458 1463 1471 1473 1476 1477 1477 1482 1484 1485 1486 1489 1496 1493 1504 1499 1493 1483 1486 1489 1494 1482 1478 1481 1480 1482 1483 1483 1484
1494 1491 1487 1483 1479 1475 1470 1466 1461 1456 1459 1464 1463 1461 1453 1445 1449 1453 1461 1468 1473 1474 1475 1477 1480 1480 1482 1491 1502 1497 1498 1494 1494 1480 1481 1487 1487 1480 1479 1479 1478 1478 1478 1478 1479
1490 1487 1483 1480 1476 1472 1468 1462 1460 1454 1455 1450 1447 1444 1441 1438 1445 1446 1454 1461 1468 1470 1469 1469 1479 1476 1475 1478 1480 1482 1486 1490 1480 1474 1478 1483 1481 1478 1474 1474 1474 1471 1471 1471 1471
1488 1483 1479 1476 1473 1470 1468 1466 1466 1465 1454 1444 1439 1440 1440 1435 1439 1440 1450 1457 1459 1462 1465 1471 1465 1467 1472 1474 1477 1478 1483 1486 1478 1470 1473 1478 1479 1472 1469 1467 1463 1462 1463 1463 1464
1485 1481 1477 1472 1469 1468 1466 1465 1464 1463 1454 1437 1434 1432 1434 1437 1437 1434 1440 1446 1449 1459 1456 1454 1450 1461 1465 1467 1471 1471 1476 1480 1480 1472 1472 1474 1481 1472 1462 1460 1456 1454 1454 1456 1456
1481 1478 1475 1471 1470 1466 1464 1462 1458 1460 1448 1429 1424 1419 1427 1431 1428 1431 1434 1438 1445 1447 1448 1453 1449 1451 1458 1459 1462 1470 1464 1466 1468 1476 1491 1472 1497 1471 1460 1455 1449 1445 1445 1446 1448
1477 1474 1473 1470 1467 1464 1465 1462 1461 1461 1444 1410 1408 1407 1411 1418 1419 1420 1426 1432 1437 1437 1445 1439 1441 1449 1452 1450 1456 1459 1460 1463 1464 1473 1479 1477 1491 1470 1455 1452 1441 1438 1437 1439 1441
1472 1470 1468 1466 1464 1461 1462 1461 1461 1460 1437 1401 1396 1398 1404 1407 1412 1414 1419 1425 1428 1433 1432 1431 1429 1436 1434 1440 1445 1451 1458 1462 1469 1478 1490 1481 1485 1474 1454 1439 1435 1433 1433 1436 1437
1467 1464 1462 1461 1456 1458 1460 1460 1458 1448 1416 1396 1394 1393 1392 1394 1403 1409 1408 1416 1418 1438 1435 1428 1426 1424 1426 1439 1441 1448 1462 1484 1490 1493 1483 1467 1471 1456 1438 1432 1430 1429 1430 1432 1435
1459 1456 1451 1450 1450 1454 1457 1457 1446 1428 1417 1392 1399 1391 1387 1387 1391 1398 1402 1413 1414 1419 1434 1429 1438 1417 1415 1421 1434 1440 1452 1470 1485 1486 1473 1459 1466 1444 1424 1421 1423 1425 1427 1429 1431
1453 1447 1438 1437 1442 1447 1451 1442 1438 1426 1413 1411 1401 1397 1387 1381 1382 1392 1394 1400 1401 1400 1411 1421 1417 1406 1410 1413 1420 1439 1448 1442 1460 1461 1471 1459 1443 1426 1418 1420 1420 1423 1424 1426 1428
1449 1442 1430 1430 1432 1439 1438 1428 1429 1422 1416 1418 1419 1397 1382 1376 1378 1380 1385 1386 1393 1393 1398 1401 1418 1402 1408 1410 1418 1421 1430 1453 1463 1473 1472 1458 1448 1439 1424 1421 1421 1422 1422 1423 1425
1445 1441 1428 1427 1427 1433 1428 1425 1420 1419 1418 1418 1415 1408 1400 1394 1378 1371 1365 1372 1378 1380 1389 1392 1395 1404 1405 1407 1409 1426 1430 1437 1442 1455 1459 1464 1446 1415 1411 1412 1418 1417 1417 1418 1421
1442 1438 1426 1428 1424 1423 1424 1420 1420 1418 1415 1414 1410 1408 1406 1409 1401 1365 1361 1357 1358 1363 1377 1383 1395 1398 1395 1396 1398 1403 1412 1418 1433 1445 1441 1452 1442 1406 1404 1405 1409 1413 1414 1416 1418
1439 1432 1422 1422 1426 1421 1421 1421 1420 1412 1409 1407 1404 1401 1401 1400 1390 1382 1370 1359 1360 1360 1361 1371 1388 1399 1400 1404 1402 1403 1401 1410 1417 1427 1437 1439 1431 1400 1402 1406 1406 1409 1411 1413 1416
1438 1431 1422 1419 1417 1417 1417 1416 1414 1409 1406 1404 1398 1399 1402 1399 1398 1382 1367 1362 1354 1360 1361 1369 1381 1388 1381 1363 1377 1398 1399 1402 1410 1424 1415 1412 1413 1404 1404 1405 1405 1406 1406 1408 1411
1432 1428 1424 1423 1418 1416 1415 1416 1411 1407 1404 1401 1391 1391 1391 1392 1387 1384 1373 1370 1357 1354 1360 1358 1376 1378 1373 1371 1377 1382 1390 1394 1399 1390 1406 1395 1401 1401 1401 1403 1399 1398 1402 1405 1407
1428 1426 1422 1419 1416 1415 1413 1410 1407 1404 1404 1398 1396 1389 1383 1383 1386 1384 1376 1381 1369 1359 1357 1364 1368 1373 1372 1370 1371 1380 1381 1382 1380 1384 1387 1392 1395 1390 1391 1394 1397 1398 1400 1402 1403
1420 1420 1420 1412 1412 1414 1411 1406 1403 1402 1399 1398 1399 1399 1391 1382 1379 1376 1375 1375 1375 1374 1367 1360 1360 1366 1371 1366 1373 1383 1360 1372 1376 1375 1377 1385 1379 1384 1388 1388 1391 1393 1394 1395 1397